カタログに戻る

SL-12 R/B(2)

運用中GEO
NORAD 20266·ROCKET BODY·🇷🇺 Russia

打ち上げ Sep 28, 1989 から Baikonur Cosmodrome

Loading…

TLE

最新Source: Space-Track

元期: Sep 14, 2026, 03:15 UTC

1 20266U 89081D   26257.13545701 -.00000306  00000-0  00000-0 0  9990
2 20266  11.7836 332.2761 0025707 129.5873 239.6268  1.00609449120253

AllMySatでSL-12 R/B(2)をリアルタイム追跡

Download on the App Store